Reading, PA

8:26 AM EST on December 15, 2019 (GMT -0500)
Reading Regional-Spaatz

Weather History for KRDG - August, 2019

Change the Weather History Date:

Saturday, August 3, 2019

  Actual Average Record
Temperature  
Mean Temperature 78 °F 74 °F  
Max Temperature 88 °F 85 °F 99 °F (2006)
Min Temperature 67 °F 64 °F 52 °F (1998)
Degree Days  
Heating Degree Days 0 0  
Month to date heating degree days 0 0  
Since 1 June heating degree days 16 25  
Since 1 July heating degree days 0 1  
Cooling Degree Days 13 9  
Month to date cooling degree days 38 27  
Year to date cooling degree days 776 579  
Since 1 June cooling degree days 671 519  
Growing Degree Days 26 (Base 50)    
Moisture  
Dew Point 70 °F    
Average Humidity 78    
Maximum Humidity 100    
Minimum Humidity 55    
Precipitation  
Precipitation T in 0.11 in 3.92 in (1885)
Month to date precipitation 0.21 0.36  
Year to date precipitation 38.50 25.68  
Sea Level Pressure  
Sea Level Pressure 30.02 in    
Wind  
Wind Speed 3 mph (West)    
Max Wind Speed 15 mph    
Max Gust Speed 17 mph    
Visibility 8 miles    
Events Rain    
T = Trace of Precipitation, MM = Missing Value Source: NWS Daily Summary

Daily Weather History Graph

Daily Weather History Graph

Search for Another Location

Airport or City:

Astronomy

Aug. 03, 2019 Rise Set
Actual Time 6:02 AM EDT 8:16 PM EDT
Civil Twilight 5:32 AM EDT 8:46 PM EDT
Nautical Twilight 4:55 AM EDT 9:23 PM EDT
Astronomical Twilight 4:14 AM EDT 10:04 PM EDT
Moon 8:53 AM EDT (8/3) 10:20 PM EDT (8/3)
Length of Visible Light 15h 14m
Length of Day
14h 13m
Waxing Crescent, 10% of the Moon is Illuminated
Aug 3
Waxing Crescent
Aug 7
First Quarter
Aug 15
Full
Aug 23
Last Quarter
Aug 30
New

Hourly Weather History & Observations

Time (EDT) Temp. Heat Index Dew Point Humidity Pressure Visibility Wind Dir Wind Speed Gust Speed Precip Events Conditions
12:54 AM 68.0 °F - 68.0 °F 100% 30.09 in 10.0 mi NNW 3.5 mph - N/A   Clear
1:54 AM 68.0 °F - 68.0 °F 100% 30.09 in 10.0 mi Calm Calm - N/A   Clear
2:54 AM 68.0 °F - 68.0 °F 100% 30.08 in 10.0 mi NW 3.5 mph - N/A   Clear
3:54 AM 68.0 °F - 68.0 °F 100% 30.07 in 10.0 mi Calm Calm - N/A   Partly Cloudy
4:54 AM 66.9 °F - 66.9 °F 100% 30.06 in 10.0 mi Calm Calm - N/A   Scattered Clouds
5:04 AM 66.9 °F - 66.9 °F 100% 30.05 in 10.0 mi North 3.5 mph - N/A   Scattered Clouds
5:12 AM 66.9 °F - 66.9 °F 100% 30.05 in 10.0 mi North 3.5 mph - N/A   Mostly Cloudy
5:42 AM 68.0 °F - 68.0 °F 100% 30.06 in 10.0 mi Calm Calm - N/A   Mostly Cloudy
5:54 AM 66.9 °F - 66.9 °F 100% 30.07 in 2.0 mi Calm Calm - N/A   Mostly Cloudy
6:08 AM 66.9 °F - 66.9 °F 100% 30.06 in 2.0 mi Calm Calm - N/A   Mostly Cloudy
6:15 AM 66.9 °F - 66.9 °F 100% 30.06 in 2.0 mi Calm Calm - N/A   Mostly Cloudy
6:42 AM 68.0 °F - 68.0 °F 100% 30.06 in 2.0 mi Calm Calm - N/A   Overcast
6:54 AM 68.0 °F - 68.0 °F 100% 30.07 in 2.5 mi Calm Calm - N/A   Scattered Clouds
7:04 AM 68.0 °F - 68.0 °F 100% 30.06 in 2.5 mi Calm Calm - N/A   Mostly Cloudy
7:54 AM 71.1 °F - 70.0 °F 96% 30.07 in 2.5 mi Calm Calm - N/A   Overcast
8:54 AM 75.0 °F - 72.0 °F 90% 30.07 in 2.5 mi Calm Calm - N/A   Mostly Cloudy
9:30 AM 75.9 °F - 72.0 °F 87% 30.05 in 2.5 mi Calm Calm - N/A   Mostly Cloudy
9:43 AM 77.0 °F - 72.0 °F 84% 30.05 in 2.5 mi Calm Calm - N/A   Mostly Cloudy
9:50 AM 75.2 °F - 71.6 °F 89% 30.05 in 6.0 mi Calm Calm - N/A   Haze
9:54 AM 75.9 °F - 71.1 °F 85% 30.06 in 6.0 mi WSW 3.5 mph - N/A   Haze
10:37 AM 79.0 °F - 70.0 °F 74% 30.04 in 6.0 mi Calm Calm - N/A   Haze
10:54 AM 79.0 °F - 71.1 °F 77% 30.05 in 6.0 mi Calm Calm - N/A   Haze
10:59 AM 79.0 °F - 71.1 °F 77% 30.05 in 10.0 mi Calm Calm - N/A   Mostly Cloudy
11:54 AM 82.9 °F 88.8 °F 73.0 °F 72% 30.03 in 10.0 mi WSW 5.8 mph - N/A   Mostly Cloudy
12:01 PM 82.0 °F 86.3 °F 71.1 °F 69% 30.02 in 10.0 mi Calm Calm - N/A   Partly Cloudy
12:11 PM 82.0 °F 86.3 °F 71.1 °F 69% 30.02 in 10.0 mi Variable 3.5 mph - N/A   Mostly Cloudy
12:54 PM 84.0 °F 88.4 °F 70.0 °F 63% 30.01 in 10.0 mi West 4.6 mph - N/A   Mostly Cloudy
1:54 PM 84.9 °F 88.8 °F 69.1 °F 59% 29.99 in 10.0 mi WSW 5.8 mph - N/A   Mostly Cloudy
2:54 PM 86.0 °F 89.4 °F 68.0 °F 55% 29.97 in 10.0 mi SSW 4.6 mph - N/A   Scattered Clouds
3:54 PM 84.9 °F 88.2 °F 68.0 °F 57% 29.94 in 10.0 mi WNW 5.8 mph - N/A   Scattered Clouds
4:54 PM 80.1 °F 83.8 °F 72.0 °F 76% 29.94 in 10.0 mi West 9.2 mph - 0.00 in Rain Light Rain
5:54 PM 82.0 °F 86.3 °F 71.1 °F 69% 29.92 in 10.0 mi NW 3.5 mph - 0.00 in   Partly Cloudy
6:54 PM 82.9 °F 87.5 °F 71.1 °F 67% 29.92 in 10.0 mi Calm Calm - N/A   Clear
7:54 PM 80.1 °F 83.8 °F 72.0 °F 76% 29.94 in 10.0 mi West 5.8 mph - N/A   Partly Cloudy
8:54 PM 77.0 °F - 71.1 °F 82% 29.94 in 10.0 mi West 5.8 mph - N/A   Clear
9:54 PM 75.0 °F - 71.1 °F 87% 29.95 in 10.0 mi WSW 3.5 mph - N/A   Clear
10:54 PM 73.0 °F - 72.0 °F 96% 29.95 in 10.0 mi Calm Calm - N/A   Clear
11:54 PM 73.0 °F - 72.0 °F 96% 29.95 in 10.0 mi Calm Calm - N/A   Mostly Cloudy